Tracking 22283 objects as of 28-Jan-2021
HD Live streaming from Space Station
objects crossing your sky now

COSMOS 400

Track COSMOS 400 now!
10-day predictions
COSMOS 400 is classified as:


NORAD ID: 5050
Int'l Code: 1971-020A
Perigee: 991.7 km
Apogee: 1,006.3 km
Inclination: 65.8 °
Period: 104.9 minutes
Semi major axis: 7370 km
RCS: 1.4626 m2 (large)
Launch date: March 18, 1971
Source: Commonwealth of Independent States (former USSR) (CIS)
Launch site: PLESETSK MISSILE AND SPACE COMPLEX (PKMTR)
aabbcc
Your satellite tracking list
Your tracking list is empty




NASA's NSSDC Master Catalog

Two Line Element Set (TLE):
1  5050U 71020A   21028.38093323 -.00000085  00000-0 -55735-5 0  9999
2  5050  65.8266 347.3223 0009894 307.8691 179.6885 13.72143714498494
Source of the keplerian elements: AFSPC